N7AWM Weather Reports


time (UTC)temp
C
wind
direction
speed
KPH
gust
KPH
rain 1hr
cm
rain 24hr
cm
rain mn
cm
humidity
%
barometer
mb
20260507062347 16 323 9.7 22.5 0.00 0.00 0.00 50 1009.6
20260507060947 16 283 14.5 20.9 0.00 0.00 0.00 50 1009.7
20260507055547 16 319 12.9 25.7 0.00 0.00 0.00 50 1009.6
20260507054148 15 302 14.5 25.7 0.00 0.00 0.00 51 1010.0
20260507052748 16 271 12.9 25.7 0.00 0.00 0.00 52 1009.9
20260507051348 16 259 14.5 22.5 0.00 0.00 0.00 50 1009.8
20260507045948 17 269 14.5 27.4 0.00 0.00 0.00 47 1009.6
20260507044548 17 292 14.5 20.9 0.00 0.00 0.00 47 1009.7
20260507043148 17 308 11.3 27.4 0.00 0.00 0.00 45 1009.9
20260507041748 18 342 4.8 11.3 0.00 0.00 0.00 42 1009.8
20260507040348 18 6 1.6 6.4 0.00 0.00 0.00 39 1009.7
20260507034948 19 60 1.6 6.4 0.00 0.00 0.00 37 1009.6
20260507033548 19 79 4.8 14.5 0.00 0.00 0.00 39 1009.3
20260507032148 20 341 9.7 17.7 0.00 0.00 0.00 37 1009.2
20260507030748 20 316 9.7 17.7 0.00 0.00 0.00 37 1009.1
20260507025348 20 322 14.5 22.5 0.00 0.00 0.00 37 1008.8
20260507023948 20 312 14.5 24.1 0.00 0.00 0.00 37 1008.8
20260507022548 21 300 14.5 25.7 0.00 0.00 0.00 36 1009.0
20260507021149 21 283 12.9 19.3 0.00 0.00 0.00 36 1009.1
20260507015749 21 269 16.1 22.5 0.00 0.00 0.00 35 1009.2
20260507014349 21 267 17.7 29.0 0.00 0.00 0.00 35 1009.2
20260507012949 21 300 14.5 24.1 0.00 0.00 0.00 35 1009.1
20260507011549 21 274 12.9 19.3 0.00 0.00 0.00 34 1008.9
20260507010149 21 256 14.5 20.9 0.00 0.00 0.00 36 1009.0
20260507004749 21 287 14.5 20.9 0.00 0.00 0.00 36 1008.8
20260507003349 21 302 16.1 29.0 0.00 0.00 0.00 37 1008.7
20260507001949 21 285 17.7 27.4 0.00 0.00 0.00 38 1008.6
20260507000549 21 291 17.7 27.4 0.00 0.00 0.00 38 1008.5
20260506235149 21 302 20.9 30.6 0.00 0.00 0.00 38 1008.3
20260506233749 22 287 19.3 29.0 0.00 0.00 0.00 38 1008.1
20260506232349 22 276 20.9 37.0 0.00 0.00 0.00 39 1008.1
20260506230949 22 293 22.5 40.2 0.00 0.00 0.00 37 1008.1
20260506225549 22 279 20.9 37.0 0.00 0.00 0.00 35 1008.0
20260506224150 23 297 25.7 43.5 0.00 0.00 0.00 35 1008.1
20260506222750 23 314 22.5 37.0 0.00 0.00 0.00 34 1008.2
20260506221350 24 307 22.5 37.0 0.00 0.00 0.00 31 1008.2
20260506215950 23 315 22.5 35.4 0.00 0.00 0.00 32 1008.2
20260506214550 23 299 25.7 38.6 0.00 0.00 0.00 40 1008.2
20260506213150 24 305 22.5 33.8 0.00 0.00 0.00 33 1008.2
20260506211750 24 302 25.7 40.2 0.00 0.00 0.00 33 1008.4
20260506210350 25 311 20.9 37.0 0.00 0.00 0.00 31 1008.1
20260506204950 26 304 16.1 33.8 0.00 0.00 0.00 35 1007.9
20260506203550 26 321 12.9 22.5 0.00 0.00 0.00 32 1007.9
20260506202150 26 320 11.3 20.9 0.00 0.00 0.00 35 1007.9
20260506200750 26 285 14.5 25.7 0.00 0.00 0.00 35 1008.0
20260506195350 25 293 17.7 27.4 0.00 0.00 0.00 33 1007.9
20260506193950 26 308 16.1 24.1 0.00 0.00 0.00 34 1008.1
20260506192550 26 315 14.5 22.5 0.00 0.00 0.00 32 1008.3
20260506191150 25 334 16.1 22.5 0.00 0.00 0.00 33 1008.2
20260506185751 25 311 14.5 24.1 0.00 0.00 0.00 36 1008.1
20260506184351 26 205 9.7 24.1 0.00 0.00 0.00 33 1008.3
20260506182951 25 242 4.8 8.0 0.00 0.00 0.00 36 1008.3
20260506181551 25 345 3.2 8.0 0.00 0.00 0.00 39 1008.4
20260506180151 24 172 11.3 17.7 0.00 0.00 0.00 39 1008.5
20260506174751 25 134 6.4 12.9 0.00 0.00 0.00 36 1008.5
20260506173351 24 179 8.0 16.1 0.00 0.00 0.00 39 1008.5
20260506171951 23 100 6.4 12.9 0.00 0.00 0.00 36 1008.7
20260506170551 23 118 8.0 12.9 0.00 0.00 0.00 38 1008.7
20260506165151 23 144 9.7 16.1 0.00 0.00 0.00 41 1008.7
20260506163751 23 117 6.4 11.3 0.00 0.00 0.00 43 1008.7
20260506162351 23 119 6.4 8.0 0.00 0.00 0.00 42 1008.7
20260506160951 23 174 8.0 14.5 0.00 0.00 0.00 43 1008.8
20260506155551 23 290 9.7 17.7 0.00 0.00 0.00 39 1009.0
20260506154151 22 303 12.9 19.3 0.00 0.00 0.00 40 1009.2
20260506152752 22 304 11.3 20.9 0.00 0.00 0.00 42 1009.2
20260506151352 21 301 14.5 19.3 0.00 0.00 0.00 46 1009.2
20260506145952 21 288 14.5 25.7 0.00 0.00 0.00 45 1009.2
20260506144552 20 344 17.7 25.7 0.00 0.00 0.00 44 1009.1
20260506143152 20 316 16.1 27.4 0.00 0.00 0.00 45 1009.0
20260506141752 20 308 11.3 20.9 0.00 0.00 0.00 45 1009.0
20260506140352 20 304 11.3 22.5 0.00 0.00 0.00 45 1009.1
20260506134952 20 304 12.9 19.3 0.00 0.00 0.00 43 1009.0
20260506133552 20 316 14.5 24.1 0.00 0.00 0.00 44 1008.9
20260506132152 19 311 11.3 19.3 0.00 0.00 0.00 42 1008.8
20260506130752 18 338 8.0 16.1 0.00 0.00 0.00 43 1008.8
20260506125352 18 322 9.7 14.5 0.00 0.00 0.00 44 1008.5
20260506123952 18 304 9.7 17.7 0.00 0.00 0.00 43 1008.5
20260506122552 18 307 9.7 17.7 0.00 0.00 0.00 42 1008.4
20260506121152 18 302 6.4 11.3 0.00 0.00 0.00 41 1008.4
20260506115753 19 290 6.4 16.1 0.00 0.00 0.00 41 1008.4
20260506114353 19 340 9.7 19.3 0.00 0.00 0.00 40 1008.2
20260506112953 19 310 6.4 12.9 0.00 0.00 0.00 39 1008.2
20260506111553 19 354 8.0 14.5 0.00 0.00 0.00 39 1008.1
20260506110153 19 330 9.7 14.5 0.00 0.00 0.00 37 1008.0
20260506104753 18 332 8.0 14.5 0.00 0.00 0.00 41 1007.8
20260506103353 18 320 8.0 14.5 0.00 0.00 0.00 42 1007.8
20260506101953 18 300 8.0 16.1 0.00 0.00 0.00 43 1007.8
20260506100553 18 346 6.4 9.7 0.00 0.00 0.00 43 1007.8
20260506095153 17 304 6.4 9.7 0.00 0.00 0.00 44 1007.7
20260506093753 16 339 4.8 9.7 0.00 0.00 0.00 47 1007.8
20260506092353 17 299 4.8 9.7 0.00 0.00 0.00 42 1007.8
20260506090953 18 290 6.4 9.7 0.00 0.00 0.00 40 1007.7
20260506085553 19 275 4.8 6.4 0.00 0.00 0.00 39 1007.7
20260506084154 19 290 4.8 11.3 0.00 0.00 0.00 38 1007.6
20260506082754 20 328 8.0 17.7 0.00 0.00 0.00 37 1007.5
20260506081354 20 319 9.7 16.1 0.00 0.00 0.00 37 1007.4
20260506073154 20 313 12.9 19.3 0.00 0.00 0.00 41 1007.1
20260506071754 20 320 9.7 19.3 0.00 0.00 0.00 40 1007.1
20260506070354 20 333 11.3 17.7 0.00 0.00 0.00 38 1006.9